Location: Shepherdstown, WV
(39.4326°N, 77.8042°W)
Time: 06:03:13
(UTC-04:00)

SR - Pass Details

Date: 11 August 2021
Orbit: 581 x 874 km, 66.7° (Epoch: 24 September)

Event Time Altitude Azimuth Distance (km) Brightness Sun altitude
Rises 04:51:20 0° 216° (SW) 3,437 - -16.0°
Reaches altitude 10° 04:53:53 10° 219° (SW) 2,486 - -15.6°
Exits shadow 04:55:57 23° 224° (SW) 1,749 ? -15.2°
Maximum altitude 04:59:37 64° 301° (WNW) 913 ? -14.7°
Drops below altitude 10° 05:05:02 10° 23° (NNE) 2,354 ? -13.8°
Sets 05:07:24 0° 26° (NNE) 3,242 ? -13.4°
